This demonstration page uses our WeatherBlox Daily Observations layout. Learn more.

Left ArrowRight Arrow

44.89941, -97.11507

Hourly Observations for January 21, 2016

Temp ( °F °C ) Dew Point ( °F °C ) Humidity (%) Winds ( mph kmh ) Pressure ( in mb ) Visibility ( mi km ) Precip ( " mm )
12:53 am 00:53 Cloudy with Mist and Fog 24 -4.4 20 -6.7 84 84 Calm 30.20 1023 3 5 0.00 0.00
1:21 am 01:21 Cloudy with Mist and Fog 24 -4.4 21 -6.1 88 88 Calm 30.21 1023 2 3 0.00 0.00
1:29 am 01:29 Cloudy with Mist and Fog 24 -4.4 21 -6.1 88 88 NNE 3 6 30.21 1023 1 1 0.00 0.00
1:53 am 01:53 Mostly Cloudy with Freezing Fog 24 -4.4 21 -6.1 88 88 NNE 6 9 30.21 1023 1 1 0.00 0.00
2:05 am 02:05 Cloudy with Mist and Fog 24 -4.4 21 -6.1 88 88 NNE 7 11 30.24 1024 2 3 0.00 0.00
2:10 am 02:10 Cloudy with Mist and Fog 24 -4.4 21 -6.1 88 88 NE 8 13 30.24 1024 3 5 0.00 0.00
2:53 am 02:53 Cloudy with Mist and Fog 23 -5 20 -6.7 88 88 NE 10 17 30.24 1024 2 3 0.00 0.00
2:59 am 02:59 Cloudy with Mist and Fog 23 -5 20 -6.7 88 88 NE 9 15 30.30 1026 1 2 0.00 0.00
3:31 am 03:31 Cloudy with Mist and Fog 23 -5 20 -6.7 88 88 NE 10 17 30.30 1026 2 2 0.00 0.00
3:53 am 03:53 Cloudy with Mist and Fog 23 -5 20 -6.7 88 88 NNE 10 17 30.26 1025 1 2 0.00 0.00
4:01 am 04:01 Cloudy with Freezing Fog 23 -5 20 -6.7 88 88 NE 9 15 30.30 1026 1 1 0.00 0.00
4:14 am 04:14 Mostly Cloudy with Freezing Fog 23 -5 20 -6.7 88 88 NNE 12 19 30.30 1026 0 0 0.00 0.00
4:29 am 04:29 Mostly Cloudy with Freezing Fog 23 -5 20 -6.7 88 88 NE 12 19 30.33 1027 1 1 0.00 0.00
4:53 am 04:53 Mostly Cloudy with Freezing Fog 23 -5 20 -6.7 88 88 NE 10 17 30.27 1025 1 1 0.00 0.00
5:53 am 05:53 Cloudy with Mist and Fog 22 -5.6 19 -7.2 89 89 NNE 13 20 30.29 1026 1 1 0.00 0.00
6:53 am 06:53 Mostly Cloudy with Freezing Fog 21 -6.1 18 -7.8 88 88 NNE 14 22 30.31 1026 1 1 0.00 0.00
7:53 am 07:53 Cloudy with Light Snow 20 -6.7 17 -8.3 89 89 NNE 12 19 30.35 1028 1 1 0.00 0.03
8:40 am 08:40 Cloudy with Light Snow 20 -6.7 16 -8.9 85 85 N 10 17 30.42 1030 1 2 0.00 0.03
8:53 am 08:53 Cloudy with Light Snow 19 -7.2 16 -8.9 88 88 N 10 17 30.37 1028 1 2 0.00 0.03
9:13 am 09:13 Cloudy with Light Snow 19 -7.2 15 -9.4 84 84 NNE 12 19 30.42 1030 1 2 0.01 0.25
9:41 am 09:41 Mostly Cloudy with Light Snow 19 -7.2 15 -9.4 84 84 N 9 15 30.42 1030 1 1 0.01 0.25
9:51 am 09:51 Cloudy with Light Snow 19 -7 16 -9 86 86 N 10 17 30.42 1030 1 2 0.01 0.25
9:53 am 09:53 Cloudy with Light Snow 19 -7.2 15 -9.4 84 84 N 10 17 30.37 1029 1 2 0.01 0.25
10:24 am 10:24 Mostly Cloudy with Light Snow 19 -7.2 15 -9.4 84 84 N 8 13 30.45 1031 1 1 0.00 0.03
10:38 am 10:38 Mostly Cloudy with Light Snow 19 -7.2 15 -9.4 84 84 N 9 15 30.45 1031 1 2 0.01 0.25
10:53 am 10:53 Mostly Cloudy with Light Snow 19 -7.2 15 -9.4 84 84 N 10 17 30.40 1029 1 1 0.01 0.25
11:08 am 11:08 Mostly Cloudy with Light Snow 19 -7.2 15 -9.4 84 84 N 9 15 30.45 1031 1 2 0.00 0.03
11:14 am 11:14 Cloudy with Light Snow 19 -7.2 15 -9.4 84 84 N 10 17 30.45 1031 1 1 0.00 0.03
11:53 am 11:53 Mostly Cloudy with Light Snow 19 -7.2 15 -9.4 84 84 N 12 19 30.40 1030 1 1 0.01 0.25
12:10 pm 12:10 Mostly Cloudy with Light Snow 20 -6.7 15 -9.4 81 81 N 9 15 30.48 1032 1 1 0.00 0.03
12:46 pm 12:46 Cloudy with Light Snow 20 -6.7 16 -8.9 85 85 NNE 10 17 30.48 1032 1 1 0.01 0.25
12:53 pm 12:53 Cloudy with Light Snow 20 -6.7 15 -9.4 81 81 NNE 10 17 30.40 1029 1 1 0.01 0.25
1:07 pm 13:07 Cloudy with Light Snow 20 -6.7 15 -9.4 81 81 NNE 10 17 30.45 1031 1 1 0.00 0.03
1:17 pm 13:17 Cloudy with Light Snow 19 -7.2 15 -9.4 84 84 N 10 17 30.45 1031 1 2 0.00 0.03
1:32 pm 13:32 Cloudy with Light Snow 19 -7.2 15 -9.4 84 84 NNE 10 17 30.45 1031 2 2 0.01 0.25
1:37 pm 13:37 Cloudy with Light Snow 19 -7.2 15 -9.4 84 84 NNE 10 17 30.45 1031 2 3 0.01 0.25
1:44 pm 13:44 Cloudy with Light Snow 19 -7.2 15 -9.4 84 84 NNE 10 17 30.45 1031 2 2 0.01 0.25
1:50 pm 13:50 Cloudy with Light Snow 19 -7 16 -9 86 86 NNE 12 19 30.45 1031 1 1 0.01 0.25
2:06 pm 14:06 Cloudy with Light Snow 19 -7.2 15 -9.4 84 84 NNE 8 13 30.45 1031 1 2 0.00 0.03
2:18 pm 14:18 Cloudy with Light Snow 19 -7.2 14 -10 81 81 NNE 12 19 30.45 1031 1 2 0.00 0.03
2:53 pm 14:53 Cloudy with Light Snow 19 -7.2 14 -10 81 81 NNE 12 19 30.38 1029 1 2 0.00 0.03
3:47 pm 15:47 Cloudy with Light Snow 18 -8 12 -11 79 79 NE 8 13 30.45 1031 2 3 0.00 0.03
3:53 pm 15:53 Cloudy with Light Snow 18 -7.8 13 -10.6 81 81 NNE 9 15 30.40 1029 3 4 0.00 0.03
4:09 pm 16:09 Cloudy with Light Snow 18 -7.8 12 -11.1 77 77 NNE 8 13 30.45 1031 3 5 0.00 0.03
4:19 pm 16:19 Cloudy with Haze 18 -7.8 13 -10.6 81 81 NNE 12 19 30.45 1031 3 5 0.00 0.03
4:29 pm 16:29 Cloudy with Light Snow 18 -7.8 13 -10.6 81 81 NNE 13 20 30.45 1031 3 4 0.00 0.03
4:38 pm 16:38 Cloudy with Mist and Fog 17 -8.3 13 -10.6 84 84 NNE 13 20 30.48 1032 4 6 0.00 0.03
4:53 pm 16:53 Cloudy 17 -8.3 13 -10.6 84 84 NNE 10 17 30.41 1030 8 13 0.00 0.03
5:53 pm 17:53 Cloudy 17 -8.3 13 -10.6 84 84 N 8 13 30.43 1031 10 16 0.00 0.00
6:53 pm 18:53 Cloudy 17 -8.3 12 -11.1 80 80 N 9 15 30.43 1030 10 16 0.00 0.00
7:18 pm 19:18 Cloudy 16 -8.9 11 -11.7 80 80 N 9 15 30.48 1032 10 16 0.00 0.00
7:53 pm 19:53 Cloudy 14 -10 9 -12.8 80 80 N 9 15 30.45 1031 10 16 0.00 0.00
8:46 pm 20:46 Partly Cloudy 10 -12.2 6 -14.4 84 84 N 7 11 30.53 1034 10 16 0.00 0.00
8:53 pm 20:53 Mostly Clear 10 -12.2 5 -15 80 80 N 7 11 30.46 1032 10 16 0.00 0.00
9:53 pm 21:53 Mostly Clear 11 -11.7 6 -14.4 81 81 N 5 7 30.46 1031 10 16 0.00 0.00
10:53 pm 22:53 Clear 9 -12.8 4 -15.6 80 80 NNW 8 13 30.48 1032 10 16 0.00 0.00
11:53 pm 23:53 Mostly Cloudy 8 -13.3 4 -15.6 83 83 NNW 7 11 30.49 1033 10 16 0.00 0.00

Powered by AerisWeather